TimeCST,TemperatureF,Dew PointF,Humidity,Sea Level PressureIn,VisibilityMPH,Wind Direction,Wind SpeedMPH,Gust SpeedMPH,PrecipitationIn,Events,Conditions,WindDirDegrees,DateUTC
12:53 AM,64.0,54.0,70,30.13,10.0,SE,5.8,-,N/A,,Overcast,130,2012-11-19 06:53:00
1:53 AM,64.0,55.0,73,30.13,10.0,SE,6.9,-,N/A,,Overcast,130,2012-11-19 07:53:00
2:53 AM,64.0,55.0,73,30.12,10.0,ESE,6.9,-,N/A,,Mostly Cloudy,120,2012-11-19 08:53:00
3:53 AM,64.0,54.0,70,30.12,10.0,ESE,6.9,-,N/A,,Overcast,120,2012-11-19 09:53:00
4:45 AM,64.4,55.4,73,30.15,10.0,ESE,6.9,-,N/A,,Overcast,120,2012-11-19 10:45:00
4:53 AM,63.0,55.0,75,30.12,10.0,ESE,8.1,-,N/A,,Overcast,120,2012-11-19 10:53:00
5:53 AM,62.1,54.0,75,30.13,10.0,ESE,5.8,-,N/A,,Mostly Cloudy,110,2012-11-19 11:53:00
6:53 AM,60.1,54.0,80,30.15,10.0,ESE,3.5,-,N/A,,Mostly Cloudy,110,2012-11-19 12:53:00
7:03 AM,60.8,53.6,77,30.18,10.0,East,3.5,-,N/A,,Scattered Clouds,100,2012-11-19 13:03:00
7:53 AM,61.0,54.0,78,30.17,10.0,East,4.6,-,N/A,,Clear,100,2012-11-19 13:53:00
8:53 AM,64.9,55.0,70,30.19,10.0,ESE,5.8,-,N/A,,Clear,120,2012-11-19 14:53:00
9:53 AM,68.0,55.9,65,30.20,10.0,SE,9.2,-,N/A,,Clear,130,2012-11-19 15:53:00
10:53 AM,71.1,57.0,61,30.19,10.0,SSE,9.2,-,N/A,,Clear,150,2012-11-19 16:53:00
11:53 AM,72.0,57.0,59,30.17,10.0,SE,8.1,-,N/A,,Clear,130,2012-11-19 17:53:00
12:53 PM,73.9,55.9,53,30.13,10.0,SE,8.1,-,N/A,,Clear,140,2012-11-19 18:53:00
1:53 PM,77.0,55.9,48,30.10,10.0,SSE,6.9,-,N/A,,Clear,160,2012-11-19 19:53:00
2:53 PM,78.1,55.9,46,30.07,10.0,SSE,6.9,-,N/A,,Clear,160,2012-11-19 20:53:00
3:53 PM,77.0,55.9,48,30.07,10.0,SE,4.6,-,N/A,,Clear,140,2012-11-19 21:53:00
4:53 PM,77.0,55.9,48,30.08,10.0,SSE,8.1,-,N/A,,Clear,150,2012-11-19 22:53:00
5:53 PM,73.9,55.9,53,30.09,10.0,SE,4.6,-,N/A,,Clear,130,2012-11-19 23:53:00
6:53 PM,72.0,55.9,57,30.10,10.0,ESE,5.8,-,N/A,,Clear,120,2012-11-20 00:53:00
7:53 PM,71.1,57.0,61,30.12,10.0,ESE,6.9,-,N/A,,Clear,120,2012-11-20 01:53:00
8:53 PM,69.1,57.0,65,30.13,10.0,ESE,6.9,-,N/A,,Clear,120,2012-11-20 02:53:00
9:53 PM,68.0,57.0,68,30.13,10.0,ESE,5.8,-,N/A,,Clear,110,2012-11-20 03:53:00
10:53 PM,66.0,57.0,73,30.13,10.0,ESE,5.8,-,N/A,,Clear,110,2012-11-20 04:53:00
11:53 PM,64.9,57.0,75,30.14,10.0,East,6.9,-,N/A,,Clear,80,2012-11-20 05:53:00